Powrót do katalogu

STARLINK-30851

AktywnyŁącznośćVLEO
NORAD 58215·PAYLOAD·🇺🇸 United States

Wystrzelony Nov 3, 2023 z Cape Canaveral Space Force Station

Loading…

Następne Przeloty (najbliższe 24 godziny)

TLE

ŚwieżeSource: CelesTrak SupGP

Epoka: Sep 15, 2026, 02:34 UTC

1 58215C 23170K   26258.10743056 -.00050457  00000+0 -18273-2 0  2586
2 58215  43.0011 204.2667 0001278 275.6196 353.5706 15.27608967    14

Śledź STARLINK-30851 w czasie rzeczywistym z AllMySat

Download on the App Store